• In Uzbekistan
  • List of Countries
  • For 7 days
  • Water Temperature
  • Satellite Maps
  • Weather Map
  • Weather Widgets
  • user-avatar
    Login

    Hourly Weather Villepinte

    Today, 25 June, Monday

    Time Temperature Precipitation Wind Pressure Humidity
    00:00 +13°C° 0 mm 3 mps 762 mmHg 89%
    01:00 +13°C° 0 mm 3 mps 762 mmHg 90%
    02:00 +12°C° 0 mm 3 mps 762 mmHg 90%
    03:00 +12°C° 0 mm 3 mps 762 mmHg 91%
    04:00 +12°C° 0 mm 3 mps 762 mmHg 89%
    05:00 +13°C° 0 mm 3 mps 762 mmHg 86%
    06:00 +14°C° 0 mm 3 mps 762 mmHg 84%
    07:00 +16°C° 0 mm 3 mps 762 mmHg 80%
    08:00 +18°C° 0 mm 3 mps 762 mmHg 76%
    09:00 +19°C° 0 mm 4 mps 762 mmHg 72%
    10:00 +20°C° 0 mm 4 mps 762 mmHg 70%
    11:00 +21°C° 0 mm 4 mps 763 mmHg 68%
    12:00 +22°C° 0 mm 4 mps 763 mmHg 66%
    13:00 +23°C° 0 mm 4 mps 762 mmHg 65%
    14:00 +23°C° 0 mm 4 mps 762 mmHg 65%
    15:00 +23°C° 0 mm 5 mps 762 mmHg 64%
    16:00 +23°C° 0 mm 4 mps 762 mmHg 67%
    17:00 +23°C° 0 mm 4 mps 762 mmHg 70%
    18:00 +22°C° 0 mm 3 mps 762 mmHg 73%
    19:00 +21°C° 0 mm 3 mps 762 mmHg 77%
    20:00 +19°C° 0 mm 3 mps 762 mmHg 81%
    21:00 +18°C° 0 mm 3 mps 763 mmHg 85%
    22:00 +17°C° 0 mm 3 mps 763 mmHg 86%
    23:00 +16°C° 0 mm 3 mps 762 mmHg 87%

    Tomorrow, 26 June, Tuesday

    Time Temperature Precipitation Wind Pressure Humidity
    00:00 +16°C° 0 mm 2 mps 762 mmHg 88%
    01:00 +15°C° 0 mm 2 mps 762 mmHg 89%
    02:00 +15°C° 0 mm 2 mps 762 mmHg 89%
    03:00 +14°C° 0 mm 2 mps 762 mmHg 89%
    04:00 +14°C° 0 mm 3 mps 762 mmHg 87%
    05:00 +14°C° 0 mm 3 mps 762 mmHg 85%
    06:00 +16°C° 0 mm 3 mps 762 mmHg 82%
    07:00 +18°C° 0 mm 3 mps 762 mmHg 77%
    08:00 +20°C° 0 mm 3 mps 762 mmHg 72%
    09:00 +21°C° 0 mm 3 mps 762 mmHg 66%
    10:00 +22°C° 0 mm 3 mps 762 mmHg 63%
    11:00 +23°C° 0 mm 4 mps 762 mmHg 60%
    12:00 +25°C° 0 mm 4 mps 762 mmHg 57%
    13:00 +26°C° 0 mm 4 mps 761 mmHg 56%
    14:00 +26°C° 0 mm 4 mps 761 mmHg 55%
    15:00 +26°C° 0 mm 4 mps 761 mmHg 54%
    16:00 +25°C° 0 mm 4 mps 761 mmHg 59%
    17:00 +25°C° 0 mm 4 mps 761 mmHg 63%
    18:00 +23°C° 0 mm 4 mps 761 mmHg 67%
    19:00 +21°C° 0 mm 3 mps 761 mmHg 71%
    20:00 +20°C° 0 mm 3 mps 761 mmHg 75%
    21:00 +18°C° 0 mm 3 mps 761 mmHg 79%
    22:00 +17°C° 0 mm 3 mps 761 mmHg 80%
    23:00 +17°C° 0 mm 3 mps 761 mmHg 81%

    Day after tomorrow, 27 June, Wednesday

    Time Temperature Precipitation Wind Pressure Humidity
    00:00 +16°C° 0 mm 3 mps 761 mmHg 81%
    01:00 +14°C° 0 mm 3 mps 761 mmHg 82%
    02:00 +14°C° 0 mm 3 mps 760 mmHg 83%
    03:00 +13°C° 0 mm 3 mps 760 mmHg 83%
    04:00 +14°C° 0 mm 3 mps 760 mmHg 81%
    05:00 +16°C° 0 mm 3 mps 760 mmHg 80%
    06:00 +17°C° 0 mm 3 mps 760 mmHg 78%
    07:00 +19°C° 0 mm 3 mps 760 mmHg 75%
    08:00 +21°C° 0 mm 3 mps 760 mmHg 71%
    09:00 +24°C° 0 mm 3 mps 760 mmHg 68%
    10:00 +25°C° 0 mm 4 mps 760 mmHg 65%
    11:00 +26°C° 0 mm 4 mps 760 mmHg 62%
    12:00 +27°C° 0 mm 4 mps 760 mmHg 59%
    13:00 +27°C° 0 mm 4 mps 759 mmHg 59%
    14:00 +28°C° 0 mm 4 mps 759 mmHg 58%
    15:00 +28°C° 0 mm 4 mps 759 mmHg 58%
    16:00 +28°C° 0 mm 4 mps 759 mmHg 62%
    17:00 +27°C° 0 mm 4 mps 758 mmHg 66%
    18:00 +27°C° 0 mm 3 mps 758 mmHg 70%
    19:00 +25°C° 0 mm 3 mps 758 mmHg 73%
    20:00 +22°C° 0 mm 3 mps 759 mmHg 76%
    21:00 +21°C° 0 mm 3 mps 759 mmHg 80%
    22:00 +20°C° 0 mm 3 mps 759 mmHg 78%
    23:00 +19°C° 0 mm 3 mps 759 mmHg 76%

    28 June, Thursday

    Time Temperature Precipitation Wind Pressure Humidity
    00:00 +18°C° 0 mm 3 mps 759 mmHg 74%
    01:00 +18°C° 0 mm 3 mps 759 mmHg 76%
    02:00 +17°C° 0 mm 3 mps 759 mmHg 78%
    03:00 +16°C° 0 mm 3 mps 759 mmHg 80%
    04:00 +17°C° 0 mm 3 mps 759 mmHg 79%
    05:00 +18°C° 0 mm 3 mps 759 mmHg 79%
    06:00 +19°C° 0 mm 3 mps 759 mmHg 78%
    07:00 +20°C° 0 mm 3 mps 759 mmHg 73%
    08:00 +22°C° 0 mm 3 mps 759 mmHg 68%
    09:00 +25°C° 0 mm 4 mps 759 mmHg 63%
    10:00 +26°C° 0 mm 4 mps 759 mmHg 61%
    11:00 +26°C° 0 mm 4 mps 759 mmHg 59%
    12:00 +27°C° 0 mm 4 mps 758 mmHg 56%
    13:00 +27°C° 0 mm 4 mps 758 mmHg 56%
    14:00 +28°C° 0 mm 5 mps 758 mmHg 56%
    15:00 +28°C° 0 mm 5 mps 758 mmHg 55%
    16:00 +27°C° 0 mm 4 mps 758 mmHg 59%
    17:00 +27°C° 0 mm 4 mps 758 mmHg 63%
    18:00 +26°C° 0 mm 3 mps 757 mmHg 67%
    19:00 +24°C° 0 mm 3 mps 758 mmHg 71%
    20:00 +22°C° 0 mm 3 mps 758 mmHg 75%
    21:00 +20°C° 0 mm 3 mps 758 mmHg 79%
    22:00 +19°C° 0 mm 3 mps 758 mmHg 80%
    23:00 +18°C° 0 mm 3 mps 758 mmHg 81%

    29 June, Friday

    Time Temperature Precipitation Wind Pressure Humidity
    00:00 +18°C° 0 mm 3 mps 757 mmHg 82%
    01:00 +17°C° 0 mm 3 mps 757 mmHg 82%
    02:00 +16°C° 0 mm 3 mps 757 mmHg 82%
    03:00 +16°C° 0 mm 3 mps 757 mmHg 82%
    04:00 +16°C° 0 mm 3 mps 757 mmHg 81%
    05:00 +17°C° 0 mm 3 mps 757 mmHg 80%
    06:00 +18°C° 0 mm 3 mps 757 mmHg 79%
    07:00 +19°C° 0 mm 4 mps 757 mmHg 75%
    08:00 +21°C° 0 mm 4 mps 757 mmHg 71%
    09:00 +23°C° 0 mm 5 mps 757 mmHg 68%
    10:00 +23°C° 0 mm 5 mps 757 mmHg 64%
    11:00 +25°C° 0 mm 5 mps 756 mmHg 60%
    12:00 +26°C° 0 mm 5 mps 756 mmHg 56%
    13:00 +26°C° 0 mm 6 mps 756 mmHg 57%
    14:00 +26°C° 0 mm 6 mps 756 mmHg 58%
    15:00 +26°C° 0 mm 6 mps 756 mmHg 59%
    16:00 +23°C° 0 mm 6 mps 756 mmHg 63%
    17:00 +22°C° 0 mm 6 mps 756 mmHg 68%
    18:00 +21°C° 0 mm 6 mps 756 mmHg 72%
    19:00 +19°C° 0 mm 6 mps 756 mmHg 74%
    20:00 +16°C° 0 mm 6 mps 756 mmHg 76%
    21:00 +14°C° 0 mm 5 mps 757 mmHg 79%
    22:00 +13°C° 0 mm 5 mps 757 mmHg 80%
    23:00 +12°C° 0 mm 5 mps 757 mmHg 81%

    30 June, Saturday

    Time Temperature Precipitation Wind Pressure Humidity
    00:00 +10°C° 0 mm 5 mps 757 mmHg 82%
    01:00 +11°C° 0 mm 4 mps 757 mmHg 85%
    02:00 +10°C° 0 mm 4 mps 757 mmHg 87%
    03:00 +8°C° 0 mm 4 mps 757 mmHg 90%
    04:00 +10°C° 0 mm 4 mps 757 mmHg 88%
    05:00 +10°C° 0 mm 4 mps 757 mmHg 86%
    06:00 +11°C° 0 mm 4 mps 757 mmHg 85%
    07:00 +12°C° 0 mm 4 mps 757 mmHg 81%
    08:00 +14°C° 0 mm 4 mps 757 mmHg 77%
    09:00 +15°C° 0 mm 4 mps 757 mmHg 73%
    10:00 +17°C° 0 mm 4 mps 757 mmHg 69%
    11:00 +18°C° 0 mm 4 mps 757 mmHg 66%
    12:00 +19°C° 0 mm 4 mps 757 mmHg 63%
    13:00 +20°C° 0 mm 4 mps 757 mmHg 60%
    14:00 +21°C° 0 mm 4 mps 757 mmHg 57%
    15:00 +21°C° 0 mm 4 mps 756 mmHg 55%
    16:00 +21°C° 0 mm 4 mps 757 mmHg 59%
    17:00 +20°C° 0 mm 4 mps 757 mmHg 63%
    18:00 +20°C° 0 mm 4 mps 757 mmHg 67%
    19:00 +18°C° 0 mm 3 mps 757 mmHg 73%
    20:00 +16°C° 0 mm 3 mps 758 mmHg 78%
    21:00 +13°C° 0 mm 3 mps 758 mmHg 84%
    22:00 +13°C° 0 mm 3 mps 758 mmHg 86%
    23:00 +12°C° 0 mm 3 mps 758 mmHg 88%
    Show more